GFSNE_700_spd_000.txt.gz
Wind_Speed
36 36 38 38 38 32 31 29 23 30 28 32 38 40 50 37 29 34 34 34 33 36 37 38 39 36 39 39 40 41 40 40 41 42 40 40 42 43
34 36 32 30 26 25 25 27 27 26 31 28 24 27 30 31 26 23 27 32 33 34 30 27 30 33 35 39 40 43 42 39 36 38 38 39 40 42
29 30 30 30 29 29 28 30 28 27 32 32 28 23 23 20 22 24 25 26 28 34 35 37 34 34 34 36 39 41 45 45 41 39 39 38 39 41
31 26 27 31 34 35 35 30 29 34 31 31 30 30 28 27 27 23 23 24 27 29 35 33 35 34 35 38 39 39 41 43 46 45 42 42 43 43
34 35 36 32 34 34 35 40 41 34 32 32 34 32 32 29 33 32 29 29 30 32 32 34 38 36 34 31 36 39 42 44 46 48 47 46 45 46
35 34 34 34 32 32 32 32 32 35 35 37 38 36 32 30 29 30 32 33 34 35 34 35 35 35 35 34 34 38 40 44 47 49 51 49 48 48
39 37 35 33 33 38 37 36 41 38 38 39 39 38 36 31 28 25 26 26 28 28 31 34 36 36 36 37 35 34 39 43 45 47 46 47 48 48
42 39 36 35 33 30 35 37 39 39 35 35 37 38 37 35 35 35 37 37 37 35 38 37 36 35 36 33 29 31 37 38 45 48 49 51 52 52
40 38 35 33 33 32 34 37 37 35 32 30 32 33 35 33 34 36 37 41 43 43 42 43 40 38 41 40 43 43 41 41 38 39 46 50 51 54
35 32 30 29 29 31 34 35 34 32 32 32 33 29 32 31 34 35 38 40 41 40 38 40 35 35 37 37 39 40 43 43 42 42 40 40 45 48
31 29 26 26 25 26 29 31 31 29 30 30 30 29 29 29 30 33 34 34 36 34 32 34 32 33 33 33 34 36 36 36 37 39 41 40 39 43
28 23 21 21 22 21 23 25 26 26 26 25 25 25 26 26 26 28 30 31 30 30 24 29 29 28 31 30 29 28 28 30 32 35 36 37 38 41
28 24 19 18 22 21 22 22 23 23 22 23 22 21 22 23 22 23 25 25 23 24 18 23 26 25 27 27 20 18 20 21 21 24 28 31 32 36
27 23 21 20 20 21 21 21 21 19 18 17 17 15 15 14 14 13 15 17 20 21 17 19 25 24 26 29 24 16 16 16 20 21 19 20 25 29
23 21 19 17 16 16 16 16 14 12 11 9 9 9 8 7 6 5 7 10 13 15 16 19 22 21 24 24 21 19 21 18 19 16 18 21 22 22
20 17 15 13 13 14 12 7 5 6 6 7 8 8 7 6 6 7 8 9 12 11 11 12 14 16 17 20 23 24 22 20 19 18 16 18 21 20
18 15 13 13 12 12 12 6 4 5 6 7 8 8 8 7 6 6 7 7 10 8 6 6 9 11 12 15 20 22 21 23 21 20 21 20 20 18
16 15 14 13 13 14 14 13 8 5 6 7 8 8 8 8 6 6 7 3 5 4 3 7 8 10 9 6 5 5 7 12 17 20 19 19 18 18
16 15 13 10 12 14 12 11 10 8 5 5 8 8 7 7 6 5 5 4 4 2 2 5 6 6 4 1 5 11 7 6 6 14 21 21 18 16
15 14 11 9 12 11 10 10 9 8 9 7 3 6 7 5 4 5 5 4 5 4 5 5 6 6 7 9 11 10 10 9 10 11 13 13 16 18
14 13 8 7 10 11 11 10 10 9 9 9 7 2 6 5 4 3 5 6 7 8 8 8 9 9 9 8 10 9 9 9 10 10 10 11 13 15
14 12 9 6 8 10 10 10 10 9 9 9 8 6 2 4 5 6 8 9 10 10 11 12 12 13 13 14 15 17 12 13 14 12 12 12 13 14
15 12 11 10 8 9 10 9 9 8 8 8 7 6 5 4 4 5 6 7 8 9 10 12 13 13 13 13 15 17 15 15 15 13 12 12 12 13

GFSNE_700_spd_003.txt.gz
Wind_Speed
43 41 38 34 35 36 34 29 28 31 30 27 23 19 23 36 34 39 41 43 34 39 44 38 33 35 36 40 36 39 39 42 45 45 44 44 46 47
37 36 36 34 32 27 28 29 29 32 36 29 27 24 19 22 20 26 29 40 41 35 29 29 30 32 37 43 40 43 46 46 47 44 43 43 44 46
28 24 29 31 33 32 33 35 28 30 35 36 32 31 29 23 20 20 24 29 38 34 33 35 32 30 33 41 41 43 45 45 47 46 42 43 43 44
31 30 29 30 32 33 34 35 35 36 31 35 34 36 37 28 24 24 22 24 16 17 19 28 32 35 31 33 37 41 45 47 47 47 45 43 42 43
37 38 36 35 34 33 32 34 34 34 37 43 43 44 36 31 28 29 31 28 22 13 20 25 31 31 30 27 31 37 43 45 47 48 49 48 47 46
41 40 39 39 38 36 34 33 34 36 36 34 35 38 39 34 29 31 31 34 34 30 30 30 34 36 36 35 30 33 38 45 47 47 48 49 50 50
45 44 42 40 37 33 33 33 35 38 41 43 40 37 37 35 33 33 33 32 32 34 33 35 37 36 36 36 33 31 36 41 44 48 50 51 52 53
46 42 38 34 32 33 34 35 36 37 38 38 40 37 34 34 35 35 34 34 33 33 35 35 37 36 35 38 36 35 34 37 41 44 48 50 53 54
41 38 34 30 29 29 30 32 34 36 39 39 37 33 29 28 32 34 36 38 39 35 38 38 37 37 34 35 37 38 37 34 34 34 39 45 50 52
35 33 30 28 27 27 28 30 30 32 37 38 37 30 30 28 31 32 34 37 39 38 39 44 41 43 42 42 44 45 42 41 39 39 40 42 44 48
30 26 24 22 22 23 24 26 26 25 27 28 29 28 27 26 28 30 30 32 31 31 33 40 38 41 42 43 45 46 46 44 44 44 43 41 43 47
26 24 22 20 19 20 19 21 23 22 23 23 23 25 25 24 23 24 24 26 27 27 23 32 32 34 36 35 36 39 40 41 42 42 41 39 39 42
29 26 21 18 18 20 21 21 20 20 19 19 19 20 21 20 19 20 21 22 22 22 15 21 23 23 28 27 28 29 30 31 34 34 34 35 36 37
29 25 20 18 16 17 18 18 17 15 14 14 13 13 13 13 14 15 15 15 16 16 14 20 23 21 22 24 25 23 24 24 26 28 27 25 27 30
24 22 19 17 15 16 16 15 12 9 8 6 5 5 6 7 8 8 8 7 7 8 10 13 19 19 20 22 21 21 23 26 24 22 21 23 26 26
21 18 17 16 16 16 15 10 6 4 2 2 2 3 5 7 6 6 4 5 6 8 11 9 11 14 15 15 17 16 20 24 25 26 25 22 22 23
19 17 16 15 14 14 14 14 9 5 4 4 4 4 5 7 7 6 5 6 5 6 7 6 7 7 6 8 10 10 13 17 20 24 27 26 23 21
17 16 15 14 16 18 17 17 16 13 6 5 4 5 6 7 7 9 8 6 5 4 1 2 4 6 5 4 1 1 1 5 12 18 23 25 24 23
16 14 13 12 15 16 17 16 15 14 12 4 6 7 8 7 6 7 6 5 5 6 5 1 3 1 3 3 4 4 4 3 2 4 14 18 19 19
16 13 11 8 11 14 14 15 15 14 14 12 1 5 5 4 4 4 5 6 6 6 3 4 5 5 4 5 7 7 7 8 9 10 11 13 13 12
17 14 11 8 8 11 13 13 13 12 11 10 8 1 3 4 3 3 4 6 6 7 8 9 9 9 10 11 11 10 9 10 10 11 12 13 13 13
19 16 14 11 9 9 11 11 11 11 10 8 7 5 2 3 6 6 6 7 8 10 11 11 10 12 12 14 16 15 13 14 15 14 13 13 15 16
20 17 14 14 13 11 10 10 10 9 9 8 6 5 4 4 4 3 4 4 4 5 6 8 9 10 11 13 14 15 14 14 16 15 14 13 13 14

GFSNE_700_spd_009.txt.gz
Wind_Speed
40 35 34 36 37 36 35 34 34 40 40 35 34 28 26 24 26 29 27 26 28 32 39 49 57 52 56 53 53 60 58 54 47 46 46 43 40 38
29 28 31 34 35 35 34 34 35 38 43 40 36 34 31 28 24 25 26 26 24 26 31 36 42 37 53 47 54 55 59 59 53 49 49 44 41 37
32 35 35 37 38 39 40 40 39 38 43 42 40 38 37 27 27 28 28 28 25 24 25 34 38 39 39 48 48 40 56 59 56 53 52 46 42 38
33 35 38 42 44 44 44 43 43 42 42 42 39 41 37 39 30 23 29 31 31 24 25 27 33 30 36 39 38 40 39 40 57 55 52 50 46 42
36 41 45 46 46 47 46 44 41 40 39 40 40 39 38 35 36 34 26 28 32 32 28 21 36 37 35 35 36 34 29 42 48 53 54 50 47 45
41 46 48 48 48 47 42 39 35 36 35 34 36 38 39 38 35 34 37 34 33 35 33 35 26 28 36 44 44 43 35 34 36 41 42 46 48 49
43 46 46 47 44 40 37 35 32 33 31 29 30 32 36 37 35 35 33 33 35 40 36 36 37 15 24 24 29 30 31 32 38 40 44 46 49 51
45 45 45 40 37 36 35 32 29 30 31 30 31 31 33 33 33 34 35 35 34 38 39 37 37 33 24 26 29 29 30 29 30 35 40 44 43 46
44 44 39 37 37 36 33 30 27 25 28 28 30 32 35 33 33 31 32 32 33 35 43 42 38 38 38 35 34 34 35 35 32 33 38 42 46 43
43 39 36 36 34 31 28 26 23 21 22 24 26 27 28 30 32 31 31 34 33 30 33 38 40 40 41 37 37 38 38 37 37 38 40 42 43 47
39 33 32 31 28 25 25 24 23 19 22 23 24 24 25 24 24 25 27 30 29 27 30 34 34 38 41 43 41 36 38 38 39 40 39 40 42 44
33 28 29 27 26 25 24 23 22 20 19 20 22 22 23 22 21 21 21 24 24 24 26 29 29 37 40 42 43 44 44 43 42 43 42 41 42 42
32 27 26 26 25 23 22 21 20 18 16 16 15 16 17 16 17 19 20 21 21 21 22 28 29 32 35 37 40 44 46 47 47 47 46 44 44 45
30 26 25 25 23 21 22 22 18 14 10 7 7 8 10 12 12 14 16 16 16 16 21 22 22 25 27 29 31 34 38 40 43 43 42 39 38 38
28 24 23 24 21 22 21 20 17 11 7 4 3 3 4 5 6 9 10 10 10 12 14 16 18 21 24 23 22 23 27 29 32 33 34 35 34 34
27 23 21 21 21 22 21 19 16 11 6 3 2 2 2 4 4 5 7 8 8 8 8 9 10 12 15 17 18 19 20 23 27 29 30 31 32 32
27 23 19 17 17 20 21 19 18 14 6 2 1 2 3 4 5 5 6 5 4 1 3 7 9 9 9 11 10 12 17 22 24 27 31 31 31 31
26 24 20 17 17 17 19 20 18 17 11 1 2 2 3 3 3 4 4 4 5 4 2 2 3 4 6 8 9 9 10 11 15 17 19 21 20 24
24 24 21 19 17 17 18 19 18 17 16 8 1 3 3 3 3 5 6 8 9 7 5 4 4 2 1 4 6 6 4 5 4 5 6 7 11 19
22 22 22 20 18 17 16 16 18 17 16 14 8 1 2 3 4 5 5 7 7 7 7 9 7 6 6 6 7 9 9 9 10 9 8 7 7 8
20 20 20 20 20 19 17 15 13 14 14 13 11 7 3 3 4 4 4 5 7 8 8 10 10 9 9 9 10 11 11 10 10 11 11 11 10 10
20 19 19 20 19 19 18 17 13 12 12 12 10 8 6 4 4 6 6 7 9 10 10 11 12 12 12 12 13 15 15 15 16 16 16 16 16 16
21 21 19 19 19 19 18 17 16 13 11 10 11 10 8 7 5 5 5 5 5 5 5 7 9 10 10 10 12 13 14 15 15 16 17 18 19 18

GFSNE_700_spd_012.txt.gz
Wind_Speed
38 35 31 31 33 34 35 35 39 47 49 46 40 33 34 32 27 29 32 33 30 29 29 35 39 57 58 59 56 55 54 51 52 49 47 48 48 45
34 33 34 36 36 36 37 40 41 44 52 47 45 39 34 36 32 28 31 33 31 28 28 31 36 41 46 52 57 59 53 51 50 53 50 52 49 46
36 37 36 36 37 39 42 43 43 43 47 47 43 39 37 36 32 32 26 33 30 29 30 29 30 32 37 38 42 56 55 51 52 43 50 51 52 50
35 34 35 39 42 45 47 46 46 43 43 44 39 34 34 35 34 30 31 25 35 33 30 30 31 30 32 35 33 40 45 50 50 47 49 54 51 51
35 37 40 43 47 47 47 45 40 36 35 37 35 30 28 32 35 30 24 35 26 33 32 31 30 31 31 34 37 43 39 47 45 45 43 53 55 54
36 39 42 45 46 46 42 38 37 35 33 33 31 28 25 28 32 33 32 33 35 31 31 33 32 29 33 30 33 40 40 42 41 40 38 42 45 51
37 39 42 45 44 40 39 39 38 36 32 30 28 24 20 21 26 31 32 32 32 34 38 34 34 33 26 24 29 35 42 42 33 35 45 45 42 42
39 39 43 43 38 36 36 35 33 31 28 27 26 23 26 25 24 23 28 27 27 31 34 36 38 35 34 25 26 29 28 26 26 29 37 34 29 34
38 41 43 38 35 35 33 30 29 26 24 23 25 23 23 26 28 30 32 29 25 28 34 35 35 37 37 28 22 20 24 24 27 29 29 29 31 32
37 41 41 34 33 31 30 28 26 24 23 24 24 23 23 21 24 29 32 31 29 27 31 32 31 35 39 34 35 28 26 26 28 29 29 29 26 27
37 40 37 31 30 29 28 27 26 24 22 22 24 24 21 21 21 22 23 26 26 26 28 29 24 30 39 40 36 34 35 33 35 34 32 30 30 30
36 38 33 29 28 26 26 27 27 24 21 19 18 20 19 17 18 20 19 19 20 22 23 23 23 28 32 37 40 38 37 34 35 37 36 34 34 36
36 36 30 26 25 22 25 26 26 23 19 15 13 14 14 13 13 17 18 18 19 19 18 21 23 25 27 31 33 36 38 39 41 40 40 39 38 39
34 34 29 24 22 20 24 25 24 21 16 12 9 9 9 10 9 11 13 14 15 16 17 19 20 21 23 27 31 33 36 38 40 41 42 41 40 40
31 32 28 23 20 21 23 24 23 21 14 10 7 6 6 4 3 3 5 8 11 12 13 15 17 19 21 23 24 26 29 32 34 35 37 38 37 38
27 28 27 23 23 22 21 23 23 21 13 7 5 5 5 5 5 3 4 5 6 6 6 7 8 12 15 18 19 20 22 23 24 27 28 29 30 31
24 25 25 23 20 20 20 21 22 21 15 6 4 3 3 4 5 6 6 6 6 4 2 6 7 7 9 11 12 15 18 20 22 24 25 23 23 23
22 22 23 23 21 19 18 18 20 20 18 7 3 1 2 2 2 3 3 4 2 2 1 3 4 5 6 7 9 10 11 13 14 15 16 16 17 19
22 21 22 22 21 20 19 18 17 17 17 14 5 2 2 2 2 3 4 5 6 6 5 4 6 4 3 5 7 8 7 6 6 5 5 5 10 16
21 21 21 21 21 21 20 18 17 15 16 15 12 6 3 4 4 4 5 7 7 6 7 7 7 5 5 4 6 8 6 5 6 6 6 5 5 6
21 21 21 20 20 20 20 20 18 16 13 13 13 11 8 5 5 5 5 5 5 6 7 8 9 9 8 8 8 9 10 9 8 7 7 7 7 7
20 21 22 22 20 20 19 19 18 17 16 15 12 11 10 9 7 6 6 7 7 7 8 11 12 11 11 11 13 14 14 14 13 13 13 12 12 12
19 21 22 23 23 22 19 19 18 16 15 14 13 11 9 9 8 7 7 7 6 5 6 8 11 12 13 13 14 14 14 14 14 15 15 15 16 16

GFSNE_700_spd_015.txt.gz
Wind_Speed
31 33 34 32 34 36 36 38 41 47 47 43 44 41 40 35 35 32 31 32 32 33 32 34 35 37 42 41 44 56 56 57 51 53 49 48 45 41
33 36 36 35 35 35 37 40 42 46 51 45 45 42 40 38 34 33 31 33 33 34 33 32 32 34 35 40 35 41 56 55 48 54 50 49 46 43
35 36 35 35 35 37 39 42 45 46 49 43 40 37 34 36 33 30 31 30 34 32 32 33 33 32 31 34 39 39 47 53 53 47 49 51 48 44
37 37 36 36 37 40 42 45 46 44 42 39 36 36 32 30 31 29 25 29 30 30 32 34 34 31 29 29 29 32 37 43 54 53 38 45 45 42
36 36 36 37 38 40 44 45 42 39 39 38 38 36 32 27 27 27 26 23 30 35 29 32 35 33 29 27 28 28 33 29 37 47 47 43 46 34
36 35 36 37 40 42 43 39 37 38 36 35 33 31 28 25 24 24 27 29 29 31 37 30 31 34 32 27 24 27 28 35 33 35 43 43 41 42
34 34 34 36 39 41 37 35 36 35 33 31 29 27 23 22 19 20 21 27 29 33 31 33 33 31 31 31 24 19 24 30 34 33 42 41 37 35
33 33 34 37 39 36 31 32 32 31 29 28 25 25 21 19 21 23 23 23 23 28 32 35 37 35 31 29 21 14 30 32 36 38 39 38 41 38
32 33 34 36 38 34 31 30 29 28 27 27 27 25 24 20 20 27 26 27 26 26 27 32 34 36 35 31 22 17 25 31 35 36 33 37 41 40
31 33 34 35 36 31 30 29 27 27 27 25 24 24 24 22 20 20 24 32 32 30 27 29 31 32 32 33 29 22 15 28 28 24 21 25 26 29
30 32 34 34 32 28 28 27 29 27 26 24 23 21 20 19 19 20 18 20 25 26 28 29 27 29 31 31 31 28 30 19 25 25 22 22 22 22
29 30 32 33 29 25 25 26 27 26 25 21 18 17 16 15 16 18 20 21 14 16 19 23 24 25 25 28 30 30 29 34 27 26 27 27 25 25
29 28 30 30 26 22 22 25 27 27 24 18 15 12 11 10 10 12 15 17 18 18 16 17 19 21 23 24 27 29 33 34 32 31 31 30 29 28
27 27 28 28 24 21 21 22 25 25 22 15 13 11 10 9 7 7 9 11 13 13 15 15 17 20 21 23 23 25 30 35 35 33 33 33 34 34
26 26 26 26 24 21 21 21 23 24 20 12 10 10 9 8 7 5 2 4 6 10 12 13 14 18 20 21 21 24 27 30 32 34 35 35 36 38
24 24 23 24 25 24 22 21 21 22 19 9 7 7 6 7 8 7 5 4 4 4 4 6 8 11 14 17 19 21 23 25 27 29 30 31 32 33
21 22 21 21 22 22 22 21 19 20 20 11 6 4 3 4 5 6 7 8 8 6 3 2 5 6 7 10 12 16 19 20 21 22 24 25 26 28
20 21 20 20 20 21 20 20 19 17 17 15 6 4 2 1 0 2 4 4 4 3 3 3 5 6 6 6 8 11 13 15 16 17 16 17 19 21
19 20 20 20 19 19 20 20 19 17 14 13 11 6 4 4 4 4 4 5 6 5 5 4 7 6 5 6 9 10 11 11 10 10 10 12 16 20
18 19 20 19 19 19 18 18 18 18 16 13 12 9 6 5 5 6 6 6 7 7 8 7 8 8 9 8 6 8 10 9 9 8 7 7 8 8
16 18 19 20 20 19 19 17 16 16 16 14 11 11 9 7 5 5 5 5 4 6 8 9 9 10 9 9 9 10 11 10 9 10 10 10 10 9
14 16 18 19 20 21 21 19 17 15 15 15 14 12 10 9 7 6 5 4 4 5 8 9 10 10 10 11 12 12 13 12 12 11 11 11 11 11
15 14 15 18 19 21 22 21 18 15 14 13 13 13 12 10 9 7 6 5 5 5 4 5 8 11 12 13 14 14 14 14 15 16 16 16 16 15

GFSNE_700_spd_021.txt.gz
Wind_Speed
31 30 31 28 26 28 28 28 32 36 36 36 38 32 33 38 38 39 39 35 34 33 37 35 37 37 35 35 39 41 43 42 51 55 56 51 47 49
29 28 31 28 31 31 30 28 30 35 41 38 37 35 40 37 34 37 39 38 34 32 32 33 32 36 34 34 34 40 42 39 47 55 47 45 44 42
29 32 29 32 32 33 32 31 31 32 39 43 41 44 42 39 40 37 37 35 33 30 28 30 32 33 34 34 31 33 40 41 42 46 52 47 53 48
32 31 32 31 36 37 32 30 32 34 37 46 46 44 40 39 37 34 32 29 30 26 20 24 25 28 32 36 32 30 31 37 39 51 49 53 38 51
27 31 33 35 38 38 37 36 37 40 43 46 45 39 38 35 33 30 28 27 25 17 23 25 29 31 32 34 33 28 27 31 38 39 37 47 51 48
28 32 35 37 37 36 35 36 39 41 42 40 37 37 34 30 25 25 25 23 21 19 22 23 20 30 28 31 28 27 25 28 33 39 42 34 37 41
30 33 34 36 35 34 34 35 37 39 37 34 34 33 31 27 27 24 24 24 20 17 20 26 16 12 22 27 30 29 25 27 28 30 39 43 33 42
30 31 32 34 35 36 36 34 34 35 32 31 31 31 29 26 24 20 23 25 22 14 19 14 17 20 16 17 24 26 27 27 24 26 29 38 40 34
29 29 29 30 33 33 34 34 33 29 28 29 30 30 30 28 26 24 22 24 21 22 21 22 20 18 14 14 26 28 24 26 26 23 25 31 35 42
28 27 28 29 33 30 31 30 29 26 26 27 28 30 28 25 25 25 26 25 24 23 25 25 22 21 28 27 30 26 23 24 25 22 25 28 29 43
26 26 28 28 30 28 29 29 26 24 24 28 29 25 20 19 18 17 17 20 21 16 12 16 17 24 25 24 23 22 24 24 20 21 23 28 30 28
24 26 29 26 25 25 26 27 25 24 24 25 25 16 15 14 13 13 12 14 15 12 10 13 13 17 21 14 17 18 22 23 17 16 22 32 31 31
24 26 26 25 23 23 24 25 25 23 23 25 18 13 12 11 10 11 13 15 15 14 17 11 11 11 10 4 8 13 19 26 22 13 21 27 30 31
23 23 22 22 22 22 21 23 23 23 22 23 16 12 10 8 7 9 14 12 13 13 13 21 15 11 9 15 10 9 19 24 27 17 22 24 20 20
22 20 20 21 21 21 20 20 21 21 20 21 15 11 9 8 7 8 7 11 12 7 7 13 15 18 17 19 19 12 11 20 26 27 19 25 24 22
20 17 18 19 20 19 19 20 20 21 20 18 17 11 9 8 6 6 4 5 6 10 11 5 6 11 15 16 17 16 15 16 22 28 30 28 29 29
18 17 17 18 19 19 19 19 19 19 20 18 17 14 10 8 7 5 1 2 3 8 11 8 6 3 7 10 11 12 14 17 17 25 32 34 33 32
18 16 16 16 17 19 19 19 19 19 19 19 17 15 13 10 9 7 7 7 5 3 1 1 5 5 2 2 6 8 9 14 19 21 22 27 30 33
17 15 15 15 16 17 18 20 20 20 18 17 17 15 14 12 10 10 11 11 11 10 7 6 5 8 9 5 1 8 8 6 11 17 20 22 23 27
17 17 15 15 15 17 18 20 22 21 19 17 16 15 14 12 11 10 10 10 12 13 13 11 12 12 11 4 17 6 11 10 8 9 13 17 21 22
18 18 17 16 16 17 18 20 22 22 21 18 16 14 13 13 11 10 9 9 10 10 10 12 11 11 13 11 5 6 8 14 14 13 13 13 14 15
20 20 19 18 18 18 19 20 22 22 21 20 16 14 13 12 12 10 9 8 7 7 8 9 10 12 13 12 9 11 10 10 12 11 12 13 12 12
21 21 21 20 19 19 19 20 20 22 21 19 17 14 13 12 11 11 10 8 7 6 5 5 9 11 13 14 16 14 12 12 13 13 13 13 14 14

GFSNE_700_spd_024.txt.gz
Wind_Speed
36 37 36 38 27 30 33 28 37 40 43 38 36 36 38 41 44 43 44 42 38 37 35 33 33 31 33 35 35 34 36 38 41 47 53 54 53 56
29 35 36 31 25 35 31 36 37 39 47 39 38 40 43 46 45 45 41 38 38 36 34 33 33 32 31 33 34 33 34 37 40 42 47 50 55 57
29 33 23 18 35 36 35 39 42 42 43 42 41 43 46 45 45 41 37 36 35 34 32 31 32 30 28 31 32 32 33 35 40 41 48 47 47 56
30 30 29 36 37 36 40 41 39 38 39 44 43 44 44 44 40 38 34 32 32 31 29 30 24 20 23 27 28 30 32 33 36 39 45 44 47 49
28 29 28 32 36 40 38 37 38 38 39 42 44 42 43 38 36 34 30 29 27 26 25 21 22 24 25 23 25 25 29 31 33 35 40 50 53 50
24 28 30 34 37 36 35 35 36 37 39 40 41 39 36 33 32 33 31 28 27 25 24 26 21 19 24 20 25 23 27 30 31 33 33 40 45 56
29 30 32 33 34 34 33 33 34 35 36 37 36 34 32 31 31 29 28 25 21 23 22 20 24 24 16 15 16 21 25 25 28 30 30 28 36 48
30 30 30 31 34 33 33 35 35 35 35 35 33 31 30 31 33 32 30 27 26 19 25 20 21 16 16 7 12 16 20 27 27 27 25 23 30 35
29 28 28 29 30 30 32 33 32 32 33 32 32 31 32 33 33 30 27 28 27 24 22 25 20 24 11 18 18 23 25 23 25 26 24 24 25 27
28 26 27 27 29 31 30 29 28 29 29 27 28 29 29 26 24 24 22 21 18 21 23 25 23 22 21 19 20 21 20 19 21 24 25 22 24 23
27 26 25 27 28 28 27 26 26 27 27 25 26 28 25 20 18 17 17 18 16 13 12 17 9 15 20 23 22 25 28 21 21 23 25 21 22 23
25 24 26 27 26 25 25 26 25 26 26 23 22 23 17 16 15 14 16 18 18 14 10 12 8 11 12 12 17 20 16 18 20 19 18 17 23 21
22 22 27 25 24 25 24 25 25 25 25 24 22 19 14 12 11 7 10 18 25 20 12 15 8 9 11 10 5 2 8 14 20 17 13 12 19 19
20 21 23 23 23 24 24 23 23 23 23 22 21 18 13 11 9 9 10 10 15 16 10 14 17 12 10 3 1 3 6 12 19 20 10 16 16 16
20 21 21 21 21 22 23 22 20 20 20 21 20 19 15 12 10 9 8 9 10 12 12 9 8 20 17 12 12 8 4 10 13 20 9 20 15 19
19 19 18 18 19 19 20 21 21 21 20 20 20 18 16 12 11 9 6 6 7 10 10 12 10 6 11 17 17 16 12 9 11 20 21 13 23 20
19 18 17 17 17 17 18 20 21 22 21 20 19 19 16 14 11 10 7 7 4 11 12 7 13 9 3 8 14 17 18 13 13 17 23 22 21 26
21 19 18 17 16 16 16 18 20 22 23 21 18 18 17 15 12 11 11 11 12 9 5 6 10 7 10 6 2 7 10 11 15 14 22 26 25 27
20 19 19 18 17 16 16 17 20 23 24 23 20 17 16 16 14 12 11 13 13 13 11 9 9 1 6 3 4 3 7 4 10 14 16 17 24 29
20 20 19 19 18 17 17 17 19 21 24 24 22 18 15 15 15 13 11 9 10 12 12 14 12 11 8 5 8 4 6 2 6 5 11 16 20 21
19 19 19 19 19 18 18 18 19 19 21 22 22 19 15 14 14 14 12 11 9 9 9 9 9 10 11 9 2 3 3 11 11 5 5 8 13 17
19 19 20 21 20 20 19 19 19 20 20 21 21 19 17 14 13 13 13 11 9 8 6 6 6 7 8 9 5 4 5 5 10 14 15 13 12 10
20 20 20 21 21 21 20 20 19 19 19 19 19 19 17 15 13 13 12 12 9 7 6 4 6 8 12 12 11 11 11 10 9 11 12 12 12 12

GFSNE_700_spd_027.txt.gz
Wind_Speed
33 34 35 35 32 35 33 31 33 43 41 40 44 42 39 39 39 38 39 41 42 42 40 38 37 35 35 34 34 32 31 33 36 40 44 46 48 47
31 33 34 35 35 32 28 31 37 41 44 46 44 42 41 40 40 41 42 42 41 38 37 37 35 35 34 32 32 33 31 32 34 37 41 43 44 49
26 29 28 30 29 26 31 36 44 40 47 48 42 40 41 41 41 41 41 39 36 35 35 34 33 34 34 31 31 31 33 33 33 36 38 39 42 46
28 29 30 30 29 30 33 37 40 44 44 44 40 39 41 40 40 40 37 33 33 34 32 32 31 31 32 30 29 29 30 31 32 34 37 38 40 44
31 31 29 30 33 33 35 37 37 37 36 39 40 40 40 38 37 34 32 31 32 31 32 32 31 30 23 28 27 26 26 26 28 32 36 36 38 42
30 31 29 31 33 34 35 34 33 33 35 37 38 37 35 33 32 32 32 30 31 29 29 31 29 26 23 21 24 26 27 25 25 29 35 34 34 39
29 29 30 32 33 34 31 30 32 33 34 33 32 33 31 29 29 30 33 33 24 26 27 26 28 26 25 22 19 23 23 26 25 27 31 32 31 33
28 29 30 33 33 30 28 31 33 34 32 33 33 33 27 27 29 32 29 26 24 22 27 23 27 25 21 21 13 17 19 14 19 24 27 29 28 27
28 29 31 31 29 27 29 30 28 28 30 31 31 30 29 29 31 27 24 25 24 20 20 18 20 21 22 25 13 13 16 17 18 22 27 27 24 23
29 30 31 29 25 26 27 25 25 26 27 28 30 29 28 29 24 22 21 21 18 15 19 21 16 17 21 26 21 16 20 19 15 19 26 26 21 20
29 30 29 26 24 26 24 24 24 24 25 26 27 26 27 24 21 19 18 15 13 17 15 22 15 13 13 20 23 25 25 21 23 24 25 19 18 15
28 30 27 23 25 24 24 24 24 24 23 23 23 22 24 19 16 16 13 13 17 16 17 20 11 12 9 10 9 21 23 25 26 20 20 13 12 13
27 26 24 22 23 22 23 23 23 23 23 23 23 20 19 16 14 13 12 15 16 20 20 20 11 12 13 9 9 5 9 13 16 18 14 10 12 13
26 24 22 23 22 21 22 21 21 22 22 22 21 21 18 15 13 12 11 11 13 18 14 14 8 15 14 10 5 8 4 6 10 15 8 14 9 8
25 24 21 21 20 19 18 19 18 20 20 20 20 20 18 17 13 11 10 9 10 14 18 13 11 8 15 11 9 2 4 8 3 13 5 14 9 10
27 24 21 20 18 16 16 17 17 20 21 22 21 19 19 17 16 13 9 10 8 7 10 6 15 10 7 11 12 10 4 3 8 15 9 9 15 12
28 25 20 19 17 15 15 16 16 18 20 22 22 20 18 18 16 14 12 11 12 10 6 5 12 9 3 6 14 13 13 9 6 10 13 11 12 16
26 24 20 19 17 16 15 15 15 17 19 22 23 22 18 17 16 14 13 12 14 16 14 11 8 8 8 7 1 9 12 14 14 10 17 17 15 15
24 23 21 19 18 17 17 17 16 17 18 20 22 23 20 17 16 15 13 12 12 14 14 13 9 8 6 6 3 2 7 7 9 13 11 20 21 19
22 21 20 19 19 18 17 17 17 16 17 18 20 21 20 18 15 15 15 12 11 10 11 12 12 11 8 5 1 3 6 4 4 5 10 13 16 19
22 20 19 19 19 19 17 17 16 16 16 16 17 18 18 18 16 14 14 14 11 9 8 7 7 8 9 9 2 7 6 5 6 3 1 6 11 14
21 21 20 19 18 19 18 16 16 15 15 15 16 17 17 18 17 14 13 13 12 9 8 6 3 4 8 10 9 6 7 5 8 12 5 8 5 5
23 24 21 19 18 19 19 18 17 16 15 14 15 16 16 16 16 14 11 11 11 10 7 6 2 6 8 8 11 11 8 6 5 6 12 15 12 9

GFSNE_700_spd_030.txt.gz
Wind_Speed
34 34 34 34 32 32 34 37 38 39 37 42 42 47 45 46 45 43 42 42 42 42 44 45 46 44 40 37 36 36 36 34 32 32 39 46 44 46
35 35 33 32 32 31 31 31 30 32 36 42 47 48 47 46 45 44 43 43 44 44 44 43 41 39 38 36 35 35 35 34 33 31 35 42 45 46
35 32 32 31 31 30 28 30 32 36 41 45 44 46 45 44 43 42 43 43 42 41 39 37 35 36 37 36 36 35 35 37 36 34 33 36 44 47
34 33 33 33 33 31 30 32 34 37 39 42 42 42 42 42 43 42 39 37 35 33 34 34 34 35 36 35 35 35 34 35 37 37 36 36 39 45
32 33 32 32 31 31 32 34 34 34 36 39 41 41 42 39 37 35 33 30 30 32 35 36 36 36 35 35 34 31 32 34 34 35 33 37 39 42
33 33 32 30 30 32 33 33 33 34 35 37 39 39 35 31 33 33 29 29 30 31 32 31 31 30 28 29 29 29 28 30 30 28 29 33 38 40
32 31 30 30 31 32 32 32 32 33 36 37 34 32 30 30 29 28 30 31 24 26 26 25 31 29 27 28 28 26 25 24 27 28 28 29 32 38
31 30 30 30 31 31 30 30 32 35 35 33 32 32 31 31 29 29 30 27 22 22 26 20 25 23 23 25 25 20 24 26 26 29 28 28 30 34
31 31 30 30 30 28 28 29 31 32 33 33 31 31 31 30 29 29 24 24 22 18 23 19 18 18 20 23 24 24 16 23 24 18 19 21 27 30
31 30 30 29 29 27 26 28 27 29 29 29 29 28 29 28 28 26 22 19 15 10 19 22 18 17 16 19 22 22 22 22 23 18 18 17 25 24
29 30 28 29 28 25 25 25 24 25 26 27 26 27 28 27 27 24 20 19 14 12 15 24 21 19 14 14 15 20 29 24 25 22 20 21 21 17
28 26 27 28 26 24 24 23 23 22 23 23 24 24 25 25 24 22 20 18 17 15 17 24 24 19 12 13 12 15 20 26 28 27 27 24 17 15
27 26 27 27 25 22 23 21 20 20 21 23 24 23 22 23 22 20 19 19 15 14 16 21 21 18 18 11 11 12 8 10 18 25 21 16 15 15
25 26 26 26 25 22 22 19 19 19 20 21 22 22 21 21 20 19 18 17 16 14 16 20 17 17 17 12 9 6 7 6 6 8 12 11 13 13
27 27 27 26 27 22 21 19 17 17 18 20 21 22 21 20 19 18 16 16 14 12 15 13 16 17 15 10 10 10 3 4 3 7 3 6 13 8
30 28 28 25 26 23 21 20 18 17 17 18 20 22 22 20 19 19 16 14 15 14 14 13 15 18 13 10 13 12 6 5 2 11 5 6 11 7
34 30 28 25 25 23 20 20 18 17 17 17 19 20 22 22 19 18 17 15 15 16 16 15 15 14 17 10 8 13 12 7 5 10 5 10 9 15
31 29 25 24 24 22 21 19 19 17 18 18 18 19 20 22 19 17 17 16 15 14 16 16 14 11 10 9 8 6 12 12 7 7 5 14 16 16
32 26 24 24 23 22 20 19 18 17 18 17 17 17 18 20 20 18 16 15 14 13 12 12 12 10 7 6 7 3 3 5 9 12 10 12 7 10
28 24 23 22 22 21 20 19 18 17 18 17 16 16 17 18 18 17 16 14 13 12 11 11 9 10 9 6 4 2 4 4 5 8 10 10 13 14
28 23 23 23 22 21 19 19 18 17 18 16 15 15 15 17 17 16 15 14 13 11 10 8 6 6 9 9 4 4 5 3 6 4 4 8 10 11
29 27 20 24 24 22 20 19 18 18 18 16 14 14 13 15 15 15 13 13 12 11 9 6 2 3 5 7 7 5 5 5 5 4 0 4 6 8
25 25 24 21 22 21 20 18 18 18 18 16 14 14 13 13 14 13 12 11 11 10 9 6 3 3 3 5 8 7 5 7 4 4 9 10 7 4

GFSNE_700_spd_033.txt.gz
Wind_Speed
46 45 38 37 38 36 36 36 35 36 35 32 32 36 38 43 48 49 47 44 44 43 44 45 46 47 47 46 44 43 42 40 39 38 36 37 38 43
41 42 37 36 36 35 34 33 33 33 34 35 38 42 44 45 45 45 43 43 44 45 47 47 47 46 45 43 40 36 36 36 35 35 34 34 37 39
35 34 34 35 34 33 31 31 31 33 36 35 38 41 42 42 42 42 43 44 44 44 43 42 40 39 38 38 36 35 34 35 35 34 35 35 36 37
33 34 34 34 33 32 31 32 32 34 37 38 38 38 38 40 43 43 41 39 40 38 37 36 35 35 36 37 38 37 36 36 36 36 36 37 37 38
36 35 35 33 33 32 32 33 34 36 37 37 37 38 39 38 38 38 36 36 34 34 34 36 37 36 36 34 35 36 36 36 36 37 37 39 39 38
38 37 36 34 33 32 32 33 34 36 35 35 37 37 36 34 35 36 32 33 30 31 32 32 31 31 31 32 31 31 31 32 31 33 32 35 37 38
37 37 36 34 33 33 33 34 34 34 33 35 34 34 34 33 33 33 32 29 27 26 26 24 28 28 27 27 26 27 28 29 29 29 29 26 30 35
36 36 35 33 32 32 33 33 33 31 33 33 33 34 34 34 32 31 31 28 23 21 23 16 25 22 24 23 20 23 26 26 25 25 27 29 30 32
35 34 33 32 32 31 30 31 29 30 31 32 33 33 32 32 32 30 28 26 21 20 24 17 22 21 22 22 23 22 23 23 23 25 27 28 29 27
35 33 32 31 30 28 30 28 26 27 28 29 30 30 30 30 29 29 28 24 18 15 21 24 22 24 24 22 21 20 20 21 24 24 24 19 19 19
35 33 32 31 28 28 29 26 25 24 25 26 27 27 28 29 29 29 26 24 17 13 16 23 18 21 21 19 18 16 17 20 25 26 25 27 22 22
35 32 31 31 28 28 28 25 24 23 23 23 24 26 28 28 28 28 27 24 19 13 13 16 20 24 26 17 15 16 18 23 19 27 27 28 27 28
34 32 31 30 27 28 28 25 24 22 21 21 21 23 25 26 26 25 25 25 19 16 14 20 21 21 27 25 8 15 16 19 12 14 24 27 30 31
33 31 31 29 28 27 28 26 24 22 21 20 21 22 23 24 24 22 22 22 21 18 15 15 16 21 25 22 10 10 14 8 12 9 9 16 22 20
32 32 32 30 30 26 28 27 25 23 21 21 21 21 22 23 24 22 20 21 20 19 17 14 13 18 23 25 12 10 11 13 8 7 6 9 13 13
33 31 31 32 33 29 29 28 25 24 22 21 20 21 22 22 22 23 19 19 18 17 21 19 17 18 20 21 15 9 10 11 11 13 7 4 4 7
36 33 29 32 38 30 28 28 25 24 22 23 21 22 22 22 21 22 21 19 20 17 14 19 19 19 18 16 17 8 9 11 14 13 10 10 6 7
35 34 31 31 31 28 28 27 26 24 22 23 21 21 21 21 19 20 20 19 19 18 15 14 15 15 15 13 14 10 6 11 11 9 3 11 15 12
33 30 29 28 27 25 27 24 23 23 23 22 20 21 21 20 18 19 19 18 17 18 16 13 10 11 11 10 10 8 2 2 6 7 7 5 4 12
29 28 32 30 24 23 27 23 22 22 22 21 19 20 20 19 17 17 19 17 16 16 14 13 10 7 9 8 6 5 2 2 2 6 8 8 6 2
27 31 27 27 27 23 28 24 22 21 21 21 19 19 19 18 16 16 17 16 15 14 13 11 9 5 5 7 4 2 1 3 3 2 2 6 8 7
25 26 24 29 28 24 25 24 23 20 20 20 20 20 19 17 14 15 15 14 13 13 12 9 6 2 1 4 6 3 3 1 1 2 3 1 6 7
25 24 24 23 23 25 25 22 21 21 21 20 21 20 19 16 14 13 14 13 10 11 10 8 5 2 3 2 4 6 3 5 2 5 4 4 3 3

GFSNE_700_spd_036.txt.gz
Wind_Speed
42 42 42 39 37 37 37 37 40 42 42 40 38 36 35 35 38 41 43 44 44 44 44 43 43 45 46 45 45 44 43 44 45 44 43 42 41 41
43 39 36 35 35 35 36 37 38 37 38 35 35 37 39 40 40 40 40 41 42 43 43 43 42 42 41 41 40 39 38 38 39 38 38 37 36 37
37 34 33 34 34 36 36 35 35 34 35 34 34 36 38 39 39 40 41 42 40 39 38 39 38 37 36 35 35 33 32 31 33 34 33 35 33 35
33 34 34 37 36 36 36 35 34 34 35 35 35 36 36 36 39 40 38 38 37 37 38 37 35 33 34 34 35 35 35 35 35 35 34 35 34 33
34 36 38 37 36 35 35 35 35 35 35 37 36 35 35 36 37 36 35 34 33 36 36 34 33 34 33 32 31 31 31 32 32 35 36 36 37 36
35 37 37 36 35 35 35 35 34 34 35 36 35 34 35 34 35 36 33 32 31 31 31 29 29 28 30 30 30 30 30 31 32 33 33 32 33 35
36 36 36 35 35 35 35 34 34 34 35 35 32 33 32 32 33 33 34 31 28 29 25 24 25 23 24 25 27 26 25 26 26 26 28 30 32 33
36 35 35 35 34 34 34 33 33 33 34 32 31 31 29 30 31 32 33 31 27 25 22 15 21 20 23 23 25 25 23 23 22 23 25 25 26 28
36 35 35 34 34 34 33 32 31 32 32 30 29 28 26 27 29 30 30 29 26 24 24 18 18 18 21 24 25 23 22 22 22 22 25 24 23 22
35 35 36 35 34 34 33 31 31 30 30 28 28 25 24 25 28 30 31 28 25 22 22 23 18 15 20 24 25 22 20 20 20 20 21 24 23 23
36 36 36 35 34 34 33 31 30 29 29 28 27 24 23 24 27 29 30 29 24 20 17 24 15 18 16 20 23 23 18 18 21 21 20 27 25 27
37 37 37 35 35 34 33 30 30 29 28 27 26 24 23 24 26 28 29 30 27 22 17 21 14 21 20 22 21 21 18 16 20 20 18 22 27 25
40 38 36 35 35 33 33 30 29 30 28 26 25 24 22 23 24 26 27 28 26 24 20 22 14 15 17 23 25 18 17 16 20 17 20 19 21 27
42 40 36 35 32 38 36 30 28 29 29 27 25 24 23 22 24 25 25 26 24 24 21 20 18 15 17 21 27 16 12 14 16 17 17 17 17 23
42 40 38 36 33 38 36 35 28 30 30 27 24 24 22 22 24 24 24 25 23 23 24 22 19 18 17 19 23 22 11 11 17 20 19 21 16 11
40 40 40 38 34 32 39 36 32 32 32 28 25 24 23 22 24 24 23 23 22 18 22 24 21 18 16 17 19 21 16 12 13 20 17 20 5 5
38 38 38 34 30 32 32 27 30 32 33 28 25 24 22 22 22 23 23 23 23 21 17 18 21 18 16 14 14 19 17 12 12 13 14 15 14 9
33 33 31 30 29 26 27 26 31 30 31 27 25 23 22 21 21 22 22 21 22 20 19 17 15 15 15 11 10 14 13 9 8 7 6 9 19 15
35 32 28 28 23 27 26 24 27 27 28 26 23 22 21 20 20 20 21 20 19 19 19 18 15 12 10 8 7 10 8 8 6 3 7 10 11 15
41 33 30 26 24 27 29 27 23 28 28 23 22 22 21 19 18 19 19 18 18 16 16 17 13 10 6 6 5 6 5 8 6 5 5 7 7 7
28 29 28 24 24 25 24 24 26 25 25 23 22 22 20 19 17 17 17 17 15 14 14 14 11 7 3 3 4 2 2 5 6 8 6 3 4 5
29 30 25 24 24 23 23 26 25 24 22 22 20 21 20 18 16 16 15 15 14 12 12 12 9 5 3 2 5 3 1 1 3 5 4 3 1 2
25 24 24 24 22 22 22 21 22 23 21 19 21 21 20 18 17 15 14 13 11 11 10 10 8 5 4 2 4 5 2 3 2 5 3 2 2 0

GFSNE_700_spd_042.txt.gz
Wind_Speed
42 47 43 34 37 37 36 34 36 35 34 29 30 33 39 36 37 38 36 38 39 40 41 42 43 44 44 44 44 44 44 43 44 44 44 45 46 45
42 40 35 36 36 36 35 35 35 36 37 33 31 32 35 34 37 38 37 37 37 37 39 40 41 42 41 40 40 39 39 38 39 39 40 41 43 44
39 35 36 37 35 36 35 35 34 34 36 32 31 29 36 35 34 36 36 35 35 35 35 37 40 40 38 36 35 35 34 33 34 34 35 36 36 36
35 38 38 36 37 34 35 34 34 32 31 34 35 34 32 37 35 35 34 33 32 29 31 34 38 38 36 33 32 30 29 29 29 31 32 33 34 34
38 38 39 36 36 34 34 34 31 31 32 36 38 35 34 35 36 36 34 32 29 29 31 34 37 35 33 30 28 27 25 25 26 27 28 30 31 33
38 39 36 34 34 35 35 34 33 35 33 36 37 36 34 34 35 35 33 31 27 29 31 34 37 32 29 26 24 23 23 24 24 25 26 27 28 31
37 36 35 33 34 35 36 37 36 36 36 37 36 35 33 33 34 34 33 30 27 28 30 32 36 32 28 26 23 23 22 22 24 25 26 25 26 26
37 33 35 35 36 37 39 39 39 39 39 37 36 34 33 34 35 33 33 30 28 28 30 31 32 31 27 23 22 22 24 24 27 26 25 24 25 25
35 35 36 37 40 39 40 40 41 41 39 36 36 34 33 33 33 32 31 30 28 28 29 30 30 31 27 22 20 21 22 27 30 28 24 22 22 24
37 37 38 39 40 42 38 40 42 41 40 36 34 32 32 32 32 31 30 29 27 27 29 31 29 30 29 22 18 20 23 27 26 23 19 17 19 22
40 41 41 41 40 41 39 40 40 39 38 38 34 31 29 31 30 31 29 29 27 26 28 30 30 29 29 22 18 22 23 26 23 17 13 14 16 20
45 46 46 45 42 42 42 41 41 38 34 41 37 33 32 30 30 30 28 28 27 26 27 29 30 30 29 23 18 19 21 21 22 13 12 14 20 25
52 52 52 51 46 42 41 40 38 34 34 34 39 40 36 31 28 30 28 26 26 25 26 27 29 28 27 27 21 19 20 19 21 16 15 17 23 30
55 54 54 51 48 43 40 37 33 33 34 35 38 37 39 30 28 30 29 27 26 25 25 26 28 28 27 24 23 17 16 17 20 16 18 22 27 35
54 54 52 49 46 45 37 34 36 35 34 36 35 38 38 29 29 32 29 27 26 24 24 24 27 27 25 23 22 15 13 14 14 16 18 22 30 33
54 53 48 43 41 44 38 37 36 30 33 33 29 32 29 35 30 30 28 26 24 23 23 23 25 26 24 20 19 13 12 16 13 13 17 20 22 27
50 47 43 39 32 32 34 35 28 27 29 27 29 26 27 26 28 27 25 24 23 22 22 22 23 23 22 18 14 10 10 13 11 10 11 11 18 24
44 41 37 33 26 25 28 28 23 25 25 24 24 25 22 24 23 26 24 22 21 20 20 21 21 20 19 16 9 6 9 10 9 9 8 8 14 22
38 35 29 22 23 21 23 26 25 25 25 24 25 24 22 24 23 26 23 21 19 18 18 19 18 18 15 12 8 5 7 8 7 8 6 6 7 14
35 32 29 26 25 24 25 26 29 27 24 23 23 24 23 24 25 25 22 21 18 16 16 17 16 15 13 10 7 4 4 5 5 8 7 6 6 2
33 29 27 25 21 20 18 21 23 20 21 20 19 22 24 22 23 24 21 19 16 15 14 14 14 13 11 8 5 4 5 5 6 6 6 6 6 7
31 28 27 24 23 22 24 24 21 20 21 21 21 23 23 22 24 23 19 18 16 14 13 12 12 11 9 7 6 6 6 5 4 6 6 6 6 7
30 27 26 26 24 27 27 27 25 23 21 23 20 20 21 23 22 22 19 18 16 13 11 11 10 9 9 8 7 7 8 7 6 4 6 8 7 7

GFSNE_700_spd_045.txt.gz
Wind_Speed
40 38 45 36 33 32 34 34 36 41 41 35 31 32 36 38 41 43 42 42 40 37 37 38 37 38 37 38 41 42 42 43 42 43 43 42 42 43
42 44 47 32 32 34 36 38 40 41 43 36 33 33 31 32 34 42 41 40 38 37 37 35 34 32 33 36 39 40 39 39 38 38 38 38 38 38
43 49 35 35 37 36 39 39 40 39 37 33 28 28 32 35 36 41 41 40 39 37 36 34 31 32 34 38 40 38 35 34 33 34 34 34 34 35
39 39 42 38 37 40 39 38 39 35 34 36 33 32 32 34 36 39 40 39 36 35 34 31 30 32 34 38 38 35 31 30 29 29 29 30 32 33
39 41 39 37 38 38 38 39 36 32 33 34 37 33 34 35 36 37 37 39 36 34 34 31 30 33 33 36 35 32 28 25 24 24 26 27 29 31
39 39 39 39 38 37 36 36 36 36 34 37 37 34 32 33 37 36 36 31 36 36 34 31 30 33 35 37 34 28 26 23 21 21 23 25 26 29
38 40 39 39 36 35 35 35 37 39 38 36 38 36 36 34 33 32 37 38 36 36 34 30 29 32 34 35 34 32 27 24 21 22 24 27 27 26
37 38 37 37 38 39 38 39 39 41 41 40 41 40 37 38 35 35 37 38 38 32 33 30 30 31 33 34 32 29 27 24 23 24 28 29 27 26
37 38 38 38 39 41 43 47 44 43 44 44 43 42 40 38 37 38 36 36 36 35 34 32 29 30 31 32 32 28 25 23 22 25 29 28 26 23
38 40 41 42 43 43 44 45 46 47 45 43 44 40 38 36 37 36 33 34 34 33 31 31 28 30 30 32 31 26 24 25 24 26 30 26 21 19
40 42 45 46 47 47 47 49 47 43 43 44 43 41 40 35 34 35 33 33 34 32 29 29 28 30 30 31 31 25 23 25 22 23 27 23 19 18
46 46 48 50 50 52 53 48 49 45 40 39 42 42 40 39 37 39 35 30 30 30 26 27 27 30 30 29 30 27 23 24 23 23 24 21 20 21
48 50 52 53 54 53 52 51 46 42 40 39 38 42 39 38 41 39 37 32 31 28 26 28 27 28 30 30 29 26 24 21 20 20 23 20 22 26
51 54 55 55 54 52 50 47 48 48 42 36 36 37 36 36 35 37 40 30 29 28 26 28 28 28 29 28 29 24 22 15 15 17 19 17 19 23
52 53 52 50 48 46 42 41 40 43 38 43 40 41 33 29 30 29 34 32 30 28 27 27 26 26 27 27 27 22 18 11 12 15 16 16 18 23
53 51 48 43 41 39 36 30 30 33 35 37 36 28 26 27 28 31 28 28 29 28 25 24 23 24 24 24 23 19 13 11 13 13 13 11 14 23
52 49 46 44 40 35 29 24 25 24 23 27 27 25 25 29 25 26 25 23 26 26 24 22 22 22 22 22 19 15 10 10 11 12 9 6 12 21
47 46 42 40 36 31 23 22 24 23 25 22 20 22 20 22 23 23 20 22 25 25 22 20 20 20 20 19 16 13 9 10 10 9 8 4 9 14
44 42 40 38 35 31 26 23 14 25 28 26 27 24 20 25 22 21 22 23 26 23 21 19 18 18 18 16 13 10 8 9 7 8 7 3 10 9
41 40 38 36 34 30 27 27 27 23 26 26 22 20 21 22 22 22 21 23 26 20 19 18 17 16 16 15 11 7 6 7 6 8 7 3 5 11
40 38 36 33 30 28 25 23 22 22 18 19 21 21 19 18 22 22 22 21 24 19 18 16 16 13 14 14 9 3 6 10 8 7 7 5 1 11
38 37 33 29 28 27 25 24 25 22 17 20 17 20 20 20 21 20 20 22 22 18 17 16 15 13 13 12 9 5 7 10 8 6 6 6 6 8
38 36 32 28 27 26 24 24 27 27 24 23 21 19 19 19 19 20 22 22 22 18 17 15 13 12 11 10 9 9 10 11 9 8 7 9 10 9